Time,TemperatureF,DewpointF,PressureIn,WindDirection,WindDirectionDegrees,WindSpeedMPH,WindSpeedGustMPH,Humidity,HourlyPrecipIn,Conditions,Clouds,dailyrainin,SoftwareType,DateUTC
2013-08-26 00:07:00,60.8,58.5,30.12,NNE,22,0.0,-999.0,92,-99.99,,,0.00,Acu-Link.com,2013-08-26 04:07:00,
2013-08-26 00:22:00,60.8,58.5,30.11,NNE,22,0.0,-999.0,92,-99.99,,,0.00,Acu-Link.com,2013-08-26 04:22:00,
2013-08-26 00:38:00,60.8,58.8,30.11,NNE,22,0.0,-999.0,93,-99.99,,,0.00,Acu-Link.com,2013-08-26 04:38:00,
2013-08-26 00:53:00,60.8,58.8,30.12,NNE,22,0.0,-999.0,93,-99.99,,,0.00,Acu-Link.com,2013-08-26 04:53:00,
2013-08-26 01:08:00,59.0,57.0,30.12,NNE,22,0.0,-999.0,93,-99.99,,,0.00,Acu-Link.com,2013-08-26 05:08:00,
2013-08-26 01:23:00,59.0,57.0,30.11,NNE,22,0.0,-999.0,93,-99.99,,,0.00,Acu-Link.com,2013-08-26 05:23:00,
2013-08-26 01:38:00,59.0,57.3,30.11,NNE,22,0.0,-999.0,94,-99.99,,,0.00,Acu-Link.com,2013-08-26 05:38:00,
2013-08-26 01:54:00,59.0,57.3,30.11,NNE,22,0.0,-999.0,94,-99.99,,,0.00,Acu-Link.com,2013-08-26 05:54:00,
2013-08-26 02:09:00,59.0,57.3,30.11,NNE,22,0.0,-999.0,94,-99.99,,,0.00,Acu-Link.com,2013-08-26 06:09:00,
2013-08-26 02:24:00,59.0,58.4,30.10,East,90,0.0,-999.0,98,-99.99,,,0.00,Acu-Link.com,2013-08-26 06:24:00,
2013-08-26 02:39:00,59.0,58.4,30.11,ENE,67,0.0,-999.0,98,-99.99,,,0.00,Acu-Link.com,2013-08-26 06:39:00,
2013-08-26 02:54:00,59.0,58.4,30.10,ENE,67,0.0,-999.0,98,-99.99,,,0.00,Acu-Link.com,2013-08-26 06:54:00,
2013-08-26 03:10:00,59.0,58.4,30.10,NE,45,0.0,-999.0,98,-99.99,,,0.00,Acu-Link.com,2013-08-26 07:10:00,
2013-08-26 03:25:00,59.0,58.4,30.09,NE,45,0.0,-999.0,98,-99.99,,,0.00,Acu-Link.com,2013-08-26 07:25:00,
2013-08-26 03:40:00,60.8,60.5,30.09,ENE,67,1.6,-999.0,99,-99.99,,,0.00,Acu-Link.com,2013-08-26 07:40:00,
2013-08-26 03:55:00,59.0,58.7,30.09,NE,45,0.0,-999.0,99,-99.99,,,0.00,Acu-Link.com,2013-08-26 07:55:00,
2013-08-26 04:11:00,59.0,58.7,30.09,NE,45,0.0,-999.0,99,-99.99,,,0.00,Acu-Link.com,2013-08-26 08:11:00,
2013-08-26 04:26:00,59.0,58.7,30.09,NE,45,0.0,-999.0,99,-99.99,,,0.00,Acu-Link.com,2013-08-26 08:26:00,
2013-08-26 04:41:00,59.0,58.7,30.09,ESE,112,0.0,-999.0,99,-99.99,,,0.00,Acu-Link.com,2013-08-26 08:41:00,
2013-08-26 04:56:00,59.0,58.7,30.08,ESE,112,0.0,-999.0,99,-99.99,,,0.00,Acu-Link.com,2013-08-26 08:56:00,
2013-08-26 05:11:00,59.0,58.7,30.08,East,90,0.0,-999.0,99,-99.99,,,0.00,Acu-Link.com,2013-08-26 09:11:00,
2013-08-26 05:26:00,59.0,58.7,30.07,NE,45,0.0,-999.0,99,-99.99,,,0.00,Acu-Link.com,2013-08-26 09:26:00,
2013-08-26 05:41:00,57.2,56.9,30.06,NE,45,0.0,-999.0,99,-99.99,,,0.00,Acu-Link.com,2013-08-26 09:41:00,
2013-08-26 05:57:00,57.2,56.9,30.06,NE,45,0.0,-999.0,99,-99.99,,,0.00,Acu-Link.com,2013-08-26 09:57:00,
2013-08-26 06:12:00,55.4,55.1,30.06,NE,45,0.0,-999.0,99,-99.99,,,0.00,Acu-Link.com,2013-08-26 10:12:00,
2013-08-26 06:27:00,55.4,55.1,30.07,NE,45,0.0,-999.0,99,-99.99,,,0.00,Acu-Link.com,2013-08-26 10:27:00,
2013-08-26 06:43:00,55.4,55.1,30.07,NE,45,0.0,-999.0,99,-99.99,,,0.00,Acu-Link.com,2013-08-26 10:43:00,
2013-08-26 06:58:00,55.4,55.1,30.08,NE,45,0.0,-999.0,99,-99.99,,,0.00,Acu-Link.com,2013-08-26 10:58:00,
2013-08-26 07:13:00,57.2,56.9,30.08,NE,45,0.0,-999.0,99,-99.99,,,0.00,Acu-Link.com,2013-08-26 11:13:00,
2013-08-26 07:29:00,59.0,58.7,30.08,NE,45,0.0,-999.0,99,-99.99,,,0.00,Acu-Link.com,2013-08-26 11:29:00,
2013-08-26 07:44:00,59.0,58.7,30.09,NE,45,0.0,-999.0,99,-99.99,,,0.00,Acu-Link.com,2013-08-26 11:44:00,
2013-08-26 07:59:00,60.8,60.5,30.09,NE,45,0.0,-999.0,99,-99.99,,,0.00,Acu-Link.com,2013-08-26 11:59:00,
2013-08-26 08:14:00,62.6,62.3,30.09,NE,45,0.0,-999.0,99,-99.99,,,0.00,Acu-Link.com,2013-08-26 12:14:00,
2013-08-26 08:29:00,64.4,64.1,30.09,NE,45,0.0,-999.0,99,-99.99,,,0.00,Acu-Link.com,2013-08-26 12:29:00,
2013-08-26 08:44:00,68.0,67.1,30.09,NNE,22,0.0,-999.0,97,-99.99,,,0.00,Acu-Link.com,2013-08-26 12:44:00,
2013-08-26 09:00:00,69.8,65.7,30.10,NNE,22,1.6,-999.0,87,-99.99,,,0.00,Acu-Link.com,2013-08-26 13:00:00,
2013-08-26 09:15:00,73.4,64.6,30.09,NNW,337,0.0,-999.0,74,-99.99,,,0.00,Acu-Link.com,2013-08-26 13:15:00,
2013-08-26 09:30:00,77.0,64.8,30.10,NE,45,0.0,-999.0,66,-99.99,,,0.00,Acu-Link.com,2013-08-26 13:30:00,
2013-08-26 09:45:00,78.8,61.8,30.09,NW,315,0.0,-999.0,56,-99.99,,,0.00,Acu-Link.com,2013-08-26 13:45:00,
2013-08-26 10:01:00,82.4,62.4,30.10,ESE,112,2.0,-999.0,51,-99.99,,,0.00,Acu-Link.com,2013-08-26 14:01:00,
2013-08-26 10:16:00,82.4,62.4,30.10,ESE,112,2.7,-999.0,51,-99.99,,,0.00,Acu-Link.com,2013-08-26 14:16:00,
2013-08-26 10:31:00,86.0,61.5,30.10,SE,135,2.0,-999.0,44,-99.99,,,0.00,Acu-Link.com,2013-08-26 14:31:00,
2013-08-26 10:46:00,77.0,59.6,30.09,South,180,3.1,-999.0,55,-99.99,,,0.00,Acu-Link.com,2013-08-26 14:46:00,
2013-08-26 11:02:00,78.8,59.1,30.09,South,180,2.0,-999.0,51,-99.99,,,0.00,Acu-Link.com,2013-08-26 15:02:00,
2013-08-26 11:17:00,80.6,61.9,30.09,South,180,2.7,-999.0,53,-99.99,,,0.00,Acu-Link.com,2013-08-26 15:17:00,
2013-08-26 11:32:00,78.8,60.7,30.09,South,180,4.0,-999.0,54,-99.99,,,0.00,Acu-Link.com,2013-08-26 15:32:00,
2013-08-26 11:48:00,78.8,60.7,30.08,South,180,3.6,-999.0,54,-99.99,,,0.00,Acu-Link.com,2013-08-26 15:48:00,
2013-08-26 12:03:00,80.6,59.6,30.08,South,180,2.7,-999.0,49,-99.99,,,0.00,Acu-Link.com,2013-08-26 16:03:00,
2013-08-26 12:18:00,82.4,60.7,30.07,South,180,3.6,-999.0,48,-99.99,,,0.00,Acu-Link.com,2013-08-26 16:18:00,
2013-08-26 12:33:00,84.2,59.9,30.07,South,180,4.7,-999.0,44,-99.99,,,0.00,Acu-Link.com,2013-08-26 16:33:00,
2013-08-26 12:48:00,82.4,59.5,30.06,SE,135,3.6,-999.0,46,-99.99,,,0.00,Acu-Link.com,2013-08-26 16:48:00,
2013-08-26 13:04:00,80.6,58.5,30.05,South,180,6.7,-999.0,47,-99.99,,,0.00,Acu-Link.com,2013-08-26 17:04:00,
2013-08-26 13:19:00,84.2,63.5,30.04,South,180,3.6,-999.0,50,-99.99,,,0.00,Acu-Link.com,2013-08-26 17:19:00,
2013-08-26 13:34:00,87.8,64.4,30.04,NW,315,2.7,-999.0,46,-99.99,,,0.00,Acu-Link.com,2013-08-26 17:34:00,
2013-08-26 13:49:00,86.0,62.8,30.04,SSE,157,3.6,-999.0,46,-99.99,,,0.00,Acu-Link.com,2013-08-26 17:49:00,
2013-08-26 14:05:00,84.2,61.1,30.03,SSE,157,3.6,-999.0,46,-99.99,,,0.00,Acu-Link.com,2013-08-26 18:05:00,
2013-08-26 14:20:00,84.2,61.1,30.03,SSE,157,4.7,-999.0,46,-99.99,,,0.00,Acu-Link.com,2013-08-26 18:20:00,
2013-08-26 14:35:00,87.8,63.1,30.01,SSE,157,4.7,-999.0,44,-99.99,,,0.00,Acu-Link.com,2013-08-26 18:35:00,
2013-08-26 14:50:00,84.2,60.5,30.01,South,180,4.0,-999.0,45,-99.99,,,0.00,Acu-Link.com,2013-08-26 18:50:00,
2013-08-26 15:06:00,93.2,62.2,30.01,NNE,22,1.6,-999.0,36,-99.99,,,0.00,Acu-Link.com,2013-08-26 19:06:00,
2013-08-26 15:21:00,87.8,62.5,29.99,South,180,3.1,-999.0,43,-99.99,,,0.00,Acu-Link.com,2013-08-26 19:21:00,
2013-08-26 15:36:00,87.8,63.1,29.98,South,180,4.0,-999.0,44,-99.99,,,0.00,Acu-Link.com,2013-08-26 19:36:00,
2013-08-26 15:51:00,89.6,62.7,29.98,South,180,4.0,-999.0,41,-99.99,,,0.00,Acu-Link.com,2013-08-26 19:51:00,
2013-08-26 16:06:00,91.4,62.2,29.97,East,90,3.1,-999.0,38,-99.99,,,0.00,Acu-Link.com,2013-08-26 20:06:00,
2013-08-26 16:21:00,95.0,63.8,29.97,East,90,2.7,-999.0,36,-99.99,,,0.00,Acu-Link.com,2013-08-26 20:21:00,
2013-08-26 16:37:00,95.0,65.4,29.96,SW,225,1.6,-999.0,38,-99.99,,,0.00,Acu-Link.com,2013-08-26 20:37:00,
2013-08-26 16:52:00,96.8,63.7,29.96,NNW,337,2.0,-999.0,34,-99.99,,,0.00,Acu-Link.com,2013-08-26 20:52:00,
2013-08-26 17:07:00,87.8,61.1,29.95,SSW,202,3.1,-999.0,41,-99.99,,,0.00,Acu-Link.com,2013-08-26 21:07:00,
2013-08-26 17:23:00,91.4,62.2,29.95,WNW,292,2.0,-999.0,38,-99.99,,,0.00,Acu-Link.com,2013-08-26 21:23:00,
2013-08-26 17:38:00,96.8,63.7,29.94,West,270,1.6,-999.0,34,-99.99,,,0.00,Acu-Link.com,2013-08-26 21:38:00,
2013-08-26 17:53:00,89.6,63.4,29.94,ESE,112,2.0,-999.0,42,-99.99,,,0.00,Acu-Link.com,2013-08-26 21:53:00,
2013-08-26 18:08:00,87.8,62.5,29.93,South,180,0.0,-999.0,43,-99.99,,,0.00,Acu-Link.com,2013-08-26 22:08:00,
2013-08-26 18:23:00,86.0,64.0,29.93,NNE,22,1.6,-999.0,48,-99.99,,,0.00,Acu-Link.com,2013-08-26 22:23:00,
2013-08-26 18:38:00,82.4,63.5,29.93,NW,315,0.0,-999.0,53,-99.99,,,0.00,Acu-Link.com,2013-08-26 22:38:00,
2013-08-26 18:54:00,78.8,62.8,29.92,North,0,0.0,-999.0,58,-99.99,,,0.00,Acu-Link.com,2013-08-26 22:54:00,
2013-08-26 19:09:00,77.0,62.5,29.92,North,0,0.0,-999.0,61,-99.99,,,0.00,Acu-Link.com,2013-08-26 23:09:00,
2013-08-26 19:24:00,77.0,65.2,29.92,North,0,0.0,-999.0,67,-99.99,,,0.00,Acu-Link.com,2013-08-26 23:24:00,
2013-08-26 19:39:00,73.4,62.6,29.92,North,0,0.0,-999.0,69,-99.99,,,0.00,Acu-Link.com,2013-08-26 23:39:00,
2013-08-26 19:54:00,73.4,64.2,29.92,North,0,0.0,-999.0,73,-99.99,,,0.00,Acu-Link.com,2013-08-26 23:54:00,
2013-08-26 20:10:00,71.6,64.0,29.91,North,0,0.0,-999.0,77,-99.99,,,0.00,Acu-Link.com,2013-08-27 00:10:00,
2013-08-26 20:25:00,71.6,64.0,29.91,North,0,0.0,-999.0,77,-99.99,,,0.00,Acu-Link.com,2013-08-27 00:25:00,
2013-08-26 20:40:00,69.8,62.6,29.91,North,0,0.0,-999.0,78,-99.99,,,0.00,Acu-Link.com,2013-08-27 00:40:00,
2013-08-26 20:55:00,69.8,63.7,29.92,North,0,0.0,-999.0,81,-99.99,,,0.00,Acu-Link.com,2013-08-27 00:55:00,
2013-08-26 21:10:00,69.8,64.0,29.91,North,0,0.0,-999.0,82,-99.99,,,0.00,Acu-Link.com,2013-08-27 01:10:00,
2013-08-26 21:26:00,68.0,63.0,29.92,North,0,0.0,-999.0,84,-99.99,,,0.00,Acu-Link.com,2013-08-27 01:26:00,
2013-08-26 21:41:00,68.0,62.6,10.12,North,0,0.0,-999.0,83,-99.99,,,0.00,Acu-Link.com,2013-08-27 01:41:00,
2013-08-26 21:56:00,68.0,62.6,29.92,North,0,0.0,-999.0,83,-99.99,,,0.00,Acu-Link.com,2013-08-27 01:56:00,
2013-08-26 22:11:00,68.0,63.3,29.93,North,0,0.0,-999.0,85,-99.99,,,0.00,Acu-Link.com,2013-08-27 02:11:00,
2013-08-26 22:26:00,66.2,61.9,29.93,North,0,0.0,-999.0,86,-99.99,,,0.00,Acu-Link.com,2013-08-27 02:26:00,
2013-08-26 22:42:00,66.2,62.2,29.93,North,0,0.0,-999.0,87,-99.99,,,0.00,Acu-Link.com,2013-08-27 02:42:00,
2013-08-26 22:57:00,66.2,62.2,29.93,North,0,0.0,-999.0,87,-99.99,,,0.00,Acu-Link.com,2013-08-27 02:57:00,
2013-08-26 23:12:00,66.2,62.2,29.94,North,0,0.0,-999.0,87,-99.99,,,0.00,Acu-Link.com,2013-08-27 03:12:00,
2013-08-26 23:28:00,66.2,62.5,29.94,North,0,0.0,-999.0,88,-99.99,,,0.00,Acu-Link.com,2013-08-27 03:28:00,
2013-08-26 23:43:00,66.2,62.9,29.93,North,0,0.0,-999.0,89,-99.99,,,0.00,Acu-Link.com,2013-08-27 03:43:00,
2013-08-26 23:58:00,66.2,63.2,29.94,North,0,0.0,-999.0,90,-99.99,,,0.00,Acu-Link.com,2013-08-27 03:58:00,